Kremmling, CO

6:26 AM MST on November 15, 2019 (GMT -0700)
Kremmling

Weather History for K20V - September, 2019

Change the Weather History Date:

Monday, September 16, 2019

  Actual Average Record
Temperature  
Mean Temperature 60 °F -  
Max Temperature 77 °F - 82 °F (2018)
Min Temperature 42 °F - 28 °F (2004)
Degree Days  
Heating Degree Days 6    
Month to date heating degree days 96  
Cooling Degree Days 0    
Month to date cooling degree days 4  
Growing Degree Days 10 (Base 50)    
Moisture  
Dew Point 35 °F    
Average Humidity 43    
Maximum Humidity 70    
Minimum Humidity 23    
Precipitation  
Precipitation 0.00 in - 0.47 in (2006)
Snow  
Snow 0.00 in - - ()
Snow Depth 0.00 in    
Sea Level Pressure  
Sea Level Pressure 30.20 in    
Wind  
Wind Speed 3 mph ()    
Max Wind Speed 14 mph    
Max Gust Speed 21 mph    
Visibility 10.0 miles    
Events Rain    
T = Trace of Precipitation, MM = Missing Value Source: Averaged Metar Reports

Daily Weather History Graph

Daily Weather History Graph

Search for Another Location

Airport or City:

Astronomy

Sep. 16, 2019 Rise Set
Actual Time 6:47 AM MDT 7:12 PM MDT
Civil Twilight 6:20 AM MDT 7:39 PM MDT
Nautical Twilight 5:48 AM MDT 8:11 PM MDT
Astronomical Twilight 5:15 AM MDT 8:44 PM MDT
Moon 8:48 PM MDT (9/16) 8:56 AM MDT (9/16)
Length of Visible Light 13h 19m
Length of Day
12h 25m
Waning Gibbous, 94% of the Moon is Illuminated
Sep 16
Waning Gibbous
Sep 21
Last Quarter
Sep 28
New
Oct 5
First Quarter
Oct 13
Full

Hourly Weather History & Observations

Time (MDT) Temp. Windchill Dew Point Humidity Pressure Visibility Wind Dir Wind Speed Gust Speed Precip Events Conditions
12:06 AM 53.6 °F - 30.2 °F 41% 30.24 in 10.0 mi East 5.8 mph - N/A   Clear
12:30 AM 53.6 °F - 30.2 °F 41% 30.24 in 10.0 mi Calm Calm - N/A   Clear
12:47 AM 50.0 °F - 30.2 °F 47% 30.24 in 10.0 mi Calm Calm - N/A   Clear
1:06 AM 50.0 °F - 30.2 °F 47% 30.24 in 10.0 mi Calm Calm - N/A   Clear
1:30 AM 48.2 °F - 32.0 °F 54% 30.24 in 10.0 mi Calm Calm - N/A   Clear
1:48 AM 48.2 °F - 32.0 °F 54% 30.24 in 10.0 mi East 4.6 mph - N/A   Clear
2:05 AM 48.2 °F - 32.0 °F 54% 30.24 in 10.0 mi ESE 5.8 mph - N/A   Clear
2:29 AM 48.2 °F - 32.0 °F 54% 30.25 in 10.0 mi Calm Calm - N/A   Clear
2:46 AM 48.2 °F - 33.8 °F 58% 30.24 in 10.0 mi Calm Calm - N/A   Clear
3:06 AM 48.2 °F - 35.6 °F 62% 30.24 in 10.0 mi Calm Calm - N/A   Clear
3:30 AM 42.8 °F 40.1 °F 32.0 °F 66% 30.24 in 10.0 mi ESE 4.6 mph - N/A   Scattered Clouds
3:48 AM 42.8 °F - 32.0 °F 66% 30.24 in 10.0 mi Calm Calm - N/A   Clear
4:06 AM 42.8 °F 41.1 °F 32.0 °F 66% 30.24 in 10.0 mi West 3.5 mph - N/A   Clear
4:29 AM 42.8 °F - 32.0 °F 66% 30.24 in 10.0 mi Calm Calm - N/A   Clear
4:47 AM 44.6 °F - 33.8 °F 66% 30.24 in 10.0 mi Calm Calm - N/A   Clear
5:06 AM 44.6 °F - 33.8 °F 66% 30.24 in 10.0 mi Calm Calm - N/A   Clear
5:30 AM 44.6 °F - 33.8 °F 66% 30.24 in 10.0 mi Calm Calm - N/A   Clear
5:48 AM 44.6 °F - 33.8 °F 66% 30.24 in 10.0 mi Calm Calm - N/A   Clear
6:09 AM 44.6 °F - 33.8 °F 66% 30.24 in 10.0 mi Calm Calm - N/A   Clear
6:27 AM 42.8 °F - 33.8 °F 70% 30.25 in 10.0 mi Calm Calm - N/A   Clear
6:50 AM 44.6 °F - 33.8 °F 66% 30.26 in 10.0 mi Calm Calm - N/A   Scattered Clouds
7:06 AM 44.6 °F - 33.8 °F 66% 30.26 in 10.0 mi Calm Calm - N/A   Scattered Clouds
7:48 AM 48.2 °F - 33.8 °F 58% 30.27 in 10.0 mi Calm Calm - N/A   Mostly Cloudy
8:06 AM 48.2 °F - 33.8 °F 58% 30.28 in 10.0 mi Calm Calm - N/A   Scattered Clouds
8:30 AM 48.2 °F - 32.0 °F 54% 30.27 in 10.0 mi Calm Calm - N/A   Scattered Clouds
8:48 AM 50.0 °F - 33.8 °F 54% 30.27 in 10.0 mi Calm Calm - N/A   Scattered Clouds
9:06 AM 51.8 °F - 33.8 °F 50% 30.27 in 10.0 mi Calm Calm - N/A   Scattered Clouds
9:29 AM 53.6 °F - 33.8 °F 47% 30.27 in 10.0 mi Calm Calm - N/A   Scattered Clouds
9:47 AM 55.4 °F - 32.0 °F 41% 30.27 in 10.0 mi Calm Calm - N/A   Mostly Cloudy
10:06 AM 55.4 °F - 32.0 °F 41% 30.26 in 10.0 mi Calm Calm - N/A   Mostly Cloudy
10:30 AM 59.0 °F - 32.0 °F 36% 30.26 in 10.0 mi Calm Calm - N/A   Mostly Cloudy
10:48 AM 59.0 °F - 32.0 °F 36% 30.26 in 10.0 mi Calm Calm - N/A Rain Light Rain
11:06 AM 59.0 °F - 32.0 °F 36% 30.25 in 10.0 mi Calm Calm - N/A   Overcast
11:30 AM 62.6 °F - 33.8 °F 34% 30.24 in 10.0 mi Calm Calm - N/A   Mostly Cloudy
11:48 AM 68.0 °F - 35.6 °F 30% 30.23 in 10.0 mi Calm Calm - N/A   Scattered Clouds
12:06 PM 68.0 °F - 35.6 °F 30% 30.22 in 10.0 mi Calm Calm - N/A   Scattered Clouds
12:29 PM 71.6 °F - 37.4 °F 29% 30.21 in 10.0 mi West 8.1 mph - N/A   Scattered Clouds
12:47 PM 71.6 °F - 37.4 °F 29% 30.20 in 10.0 mi SW 8.1 mph - N/A   Mostly Cloudy
1:06 PM 73.4 °F - 35.6 °F 25% 30.19 in 10.0 mi South 8.1 mph - N/A   Scattered Clouds
1:30 PM 71.6 °F - 35.6 °F 27% 30.19 in 10.0 mi SW 3.5 mph - N/A   Clear
1:48 PM 73.4 °F - 37.4 °F 27% 30.18 in 10.0 mi WNW 8.1 mph 16.1 mph N/A   Clear
2:06 PM 75.2 °F - 37.4 °F 25% 30.17 in 10.0 mi SW 10.4 mph 19.6 mph N/A   Scattered Clouds
2:30 PM 71.6 °F - 39.2 °F 31% 30.16 in 10.0 mi West 9.2 mph - N/A   Mostly Cloudy
2:47 PM 73.4 °F - 37.4 °F 27% 30.16 in 10.0 mi WSW 6.9 mph 20.7 mph N/A   Overcast
3:06 PM 73.4 °F - 37.4 °F 27% 30.15 in 10.0 mi WSW 10.4 mph - N/A   Overcast
3:30 PM 73.4 °F - 37.4 °F 27% 30.14 in 10.0 mi WSW 8.1 mph 16.1 mph N/A   Scattered Clouds
3:47 PM 77.0 °F - 37.4 °F 24% 30.14 in 10.0 mi West 12.7 mph 17.3 mph N/A   Scattered Clouds
4:06 PM 77.0 °F - 37.4 °F 24% 30.13 in 10.0 mi SW 9.2 mph - N/A   Scattered Clouds
4:30 PM 75.2 °F - 37.4 °F 25% 30.12 in 10.0 mi South 6.9 mph - N/A   Mostly Cloudy
4:48 PM 75.2 °F - 35.6 °F 24% 30.12 in 10.0 mi WSW 10.4 mph 17.3 mph N/A   Scattered Clouds
5:06 PM 75.2 °F - 35.6 °F 24% 30.12 in 10.0 mi SW 6.9 mph - N/A   Scattered Clouds
5:30 PM 73.4 °F - 35.6 °F 25% 30.12 in 10.0 mi SW 3.5 mph - N/A   Scattered Clouds
5:48 PM 73.4 °F - 35.6 °F 25% 30.12 in 10.0 mi WSW 3.5 mph - N/A   Scattered Clouds
6:06 PM 69.8 °F - 33.8 °F 27% 30.12 in 10.0 mi West 8.1 mph - N/A   Clear
6:29 PM 68.0 °F - 33.8 °F 28% 30.12 in 10.0 mi Calm Calm - N/A   Clear
6:47 PM 68.0 °F - 33.8 °F 28% 30.12 in 10.0 mi West 8.1 mph - N/A   Clear
7:06 PM 68.0 °F - 33.8 °F 28% 30.12 in 10.0 mi WSW 8.1 mph - N/A   Clear
7:30 PM 64.4 °F - 33.8 °F 32% 30.14 in 10.0 mi WSW 8.1 mph - N/A   Scattered Clouds
7:47 PM 64.4 °F - 33.8 °F 32% 30.14 in 10.0 mi SSW 3.5 mph - N/A   Mostly Cloudy
8:06 PM 66.2 °F - 33.8 °F 30% 30.14 in 10.0 mi SW 5.8 mph - N/A   Scattered Clouds
8:30 PM 64.4 °F - 35.6 °F 34% 30.14 in 10.0 mi WSW 11.5 mph - N/A   Clear
8:48 PM 64.4 °F - 35.6 °F 34% 30.14 in 10.0 mi WSW 9.2 mph - N/A   Scattered Clouds
9:06 PM 62.6 °F - 35.6 °F 37% 30.14 in 10.0 mi SW 13.8 mph 17.3 mph N/A   Scattered Clouds
9:30 PM 60.8 °F - 37.4 °F 42% 30.15 in 10.0 mi West 9.2 mph - N/A   Mostly Cloudy
9:48 PM 60.8 °F - 37.4 °F 42% 30.16 in 10.0 mi South 5.8 mph - N/A   Scattered Clouds
10:06 PM 59.0 °F - 37.4 °F 45% 30.16 in 10.0 mi South 4.6 mph - N/A   Mostly Cloudy
10:30 PM 59.0 °F - 39.2 °F 48% 30.16 in 10.0 mi SSE 4.6 mph - N/A   Scattered Clouds
10:47 PM 59.0 °F - 37.4 °F 45% 30.16 in 10.0 mi South 4.6 mph - N/A   Scattered Clouds
11:06 PM 53.6 °F - 37.4 °F 54% 30.16 in 10.0 mi SSE 3.5 mph - N/A   Clear
11:30 PM 50.0 °F - 35.6 °F 58% 30.16 in 10.0 mi SE 5.8 mph - N/A   Clear
11:48 PM 50.0 °F - 35.6 °F 58% 30.16 in 10.0 mi Calm Calm - N/A   Clear